Hourly Data Report for October 05, 2014

All times are specified in Local Standard Time (LST). Add 1 hour to adjust for Daylight Saving Time where and when it is observed.

CHARLOTTETOWN A
PRINCE EDWARD ISLAND

46°17'21.000" N
63°07'09.000" W
48.50 m
8300301
71706
YYG

Download Data

Hourly Data (October 2014)
Hourly Data Report for October 5, 2014
Temp Definition
°C
Dew Point Temp Definition
°C
Rel Hum Definition
%
Wind Dir Definition
10's deg

Wind Spd Definition
km/h
Visibility Definition
km
Stn Press Definition
kPa
Hmdx Definition


Wind Chill Definition


Weather Definition


TIME
00:00 Legend Double Dagger 12.0 10.4 90 12 16 9.7 100.67     Drizzle,Fog
01:00 Legend Double Dagger 12.0 10.9 93 11 19 9.7 100.65     Drizzle,Fog
02:00 Legend Double Dagger 12.6 11.5 93 11 17 24.1 100.56     Cloudy
03:00 Legend Double Dagger 13.4 12.0 91 11 24 24.1 100.49     LegendNANA
04:00 Legend Double Dagger 13.3 12.4 94 11 23 24.1 100.47     LegendNANA
05:00 Legend Double Dagger 13.6 12.3 92 11 20 24.1 100.46     Cloudy
06:00 Legend Double Dagger 13.9 12.6 92 12 19 24.1 100.43     LegendNANA
07:00 Legend Double Dagger 13.8 12.0 89 12 26 24.1 100.44     LegendNANA
08:00 Legend Double Dagger 13.9 11.6 86 13 24 24.1 100.44     Mostly Cloudy
09:00 Legend Double Dagger 15.3 11.5 78 13 31 24.1 100.43     LegendNANA
10:00 Legend Double Dagger 15.9 12.3 79 13 28 24.1 100.38     LegendNANA
11:00 Legend Double Dagger 16.7 12.5 76 13 23 24.1 100.29     Mostly Cloudy
12:00 Legend Double Dagger 17.5 12.0 70 12 33 24.1 100.15     LegendNANA
13:00 Legend Double Dagger 18.7 11.6 63 15 36 24.1 100.07     LegendNANA
14:00 Legend Double Dagger 18.5 12.1 66 15 27 24.1 100.07     Mostly Cloudy
15:00 Legend Double Dagger 17.7 11.8 68 14 31 24.1 100.03     LegendNANA
16:00 Legend Double Dagger 17.6 13.0 74 15 23 24.1 100.01     LegendNANA
17:00 Legend Double Dagger 17.4 12.4 72 14 23 24.1 99.98     Rain Showers
18:00 Legend Double Dagger 14.6 13.2 91 14 20 9.7 100.05     Rain Showers,Fog
19:00 Legend Double Dagger 14.0 13.5 97 14 19 4.8 100.10     Rain Showers,Fog
20:00 Legend Double Dagger 14.2 13.7 97 17 15 4.8 100.18     Rain Showers,Fog
21:00 Legend Double Dagger 14.2 13.9 98 14 19 4.8 100.17     Drizzle,Fog
22:00 Legend Double Dagger 14.4 14.1 98 17 17 4.0 100.17     Drizzle,Fog
23:00 Legend Double Dagger 14.4 13.9 97 22 12 9.7 100.23     Drizzle,Fog

Notes on Data Quality.

Legend

  • E = Estimated
  • M = Missing
  • NA = Not Available
  • ‡ = Partner data that is not subject to review by the National Climate Archives
Date modified: